Manistique, MI

2:43 PM EST on February 21, 2017 (GMT -0500)
Schoolcraft County

Weather History for KISQ - January, 2013

Change the Weather History Date:

Monday, January 28, 2013

  Actual Average Record
Temperature  
Mean Temperature 30 °F -  
Max Temperature 33 °F 25 °F 46 °F (1989)
Min Temperature 28 °F 7 °F -16 °F (1966)
Degree Days  
Heating Degree Days 34    
Moisture  
Dew Point 27 °F    
Average Humidity 88    
Maximum Humidity 93    
Minimum Humidity 81    
Precipitation  
Precipitation 0.00 in - - ()
Sea Level Pressure  
Sea Level Pressure 29.89 in    
Wind  
Wind Speed 8 mph (ENE)    
Max Wind Speed 16 mph    
Max Gust Speed 18 mph    
Visibility 6 miles    
Events Snow    
Averages and records for this station are not official NWS values.
T = Trace of Precipitation, MM = Missing Value Source: NWS Daily Summary

Daily Weather History Graph

Daily Weather History Graph

Search for Another Location

Airport or City:

Trip Planner

Search our weather history database for the weather conditions in past years. The results will help you decide how hot, cold, wet, or windy it might be!

Date:

Astronomy

Jan. 28, 2013 Rise Set
Actual Time 8:11 AM EST 5:44 PM EST
Civil Twilight 7:38 AM EST 6:16 PM EST
Nautical Twilight 7:02 AM EST 6:53 PM EST
Astronomical Twilight 6:27 AM EST 7:28 PM EST
Moon 7:48 PM EST (1/28) 8:28 AM EST (1/28)
Length of Visible Light 10h 37m
Length of Day
9h 33m
Full, 98% of the Moon is Illuminated
Jan 28
Full
Feb 3
Last Quarter
Feb 10
New
Feb 17
First Quarter
Feb 25
Full

Hourly Weather History & Observations

Time (EST) Temp. Windchill Dew Point Humidity Pressure Visibility Wind Dir Wind Speed Gust Speed Precip Events Conditions
12:14 AM 30.2 °F 20.2 °F 28.4 °F 93% 29.99 in 1.8 mi ESE 12.7 mph 17.3 mph N/A Snow Light Snow
12:35 AM 30.2 °F 19.8 °F 28.4 °F 93% 29.99 in 1.2 mi ESE 13.8 mph 17.3 mph N/A Snow Light Snow
1:14 AM 30.2 °F 18.9 °F 26.6 °F 86% 29.97 in 1.2 mi ESE 16.1 mph - N/A Snow Light Snow
1:35 AM 28.4 °F 18.0 °F 26.6 °F 93% 29.96 in 1.0 mi ESE 12.7 mph 17.3 mph N/A Snow Light Snow
1:54 AM 28.4 °F 18.5 °F 26.6 °F 93% 29.95 in 1.2 mi ESE 11.5 mph 17.3 mph N/A Snow Light Snow
2:15 AM 28.4 °F 18.5 °F 26.6 °F 93% 29.93 in 2.0 mi ESE 11.5 mph 18.4 mph N/A Snow Light Snow
2:34 AM 28.4 °F 19.7 °F 26.6 °F 93% 29.93 in 2.0 mi ESE 9.2 mph 17.3 mph N/A Snow Light Snow
2:55 AM 28.4 °F 18.0 °F 26.6 °F 93% 29.92 in 1.8 mi East 12.7 mph 17.3 mph N/A Snow Light Snow
3:14 AM 28.4 °F 18.5 °F 26.6 °F 93% 29.91 in 1.5 mi East 11.5 mph - N/A Snow Light Snow
3:35 AM 28.4 °F 19.1 °F 26.6 °F 93% 29.91 in 2.0 mi East 10.4 mph - N/A Snow Light Snow
3:55 AM 28.4 °F 20.4 °F 26.6 °F 93% 29.90 in 1.5 mi East 8.1 mph - N/A Snow Light Snow
4:14 AM 28.4 °F 20.4 °F 26.6 °F 93% 29.89 in 1.5 mi East 8.1 mph - N/A Snow Light Snow
4:35 AM 28.4 °F 20.4 °F 26.6 °F 93% 29.88 in 1.2 mi East 8.1 mph - N/A Snow Light Snow
4:55 AM 28.4 °F 21.2 °F 26.6 °F 93% 29.87 in 1.0 mi East 6.9 mph - N/A Snow Snow
5:14 AM 28.4 °F 19.7 °F 26.6 °F 93% 29.86 in 1.5 mi East 9.2 mph - N/A Snow Light Snow
5:35 AM 28.4 °F 21.2 °F 26.6 °F 93% 29.85 in 1.8 mi East 6.9 mph - N/A Snow Light Snow
5:54 AM 28.4 °F 22.2 °F 26.6 °F 93% 29.85 in 2.0 mi East 5.8 mph - N/A Snow Light Snow
6:15 AM 28.4 °F 21.2 °F 26.6 °F 93% 29.84 in 1.8 mi East 6.9 mph - N/A Snow Light Snow
6:34 AM 28.4 °F 21.2 °F 26.6 °F 93% 29.84 in 2.5 mi East 6.9 mph - N/A Snow Light Snow
6:55 AM 28.4 °F 22.2 °F 26.6 °F 93% 29.84 in 1.8 mi East 5.8 mph - N/A Snow Light Snow
7:15 AM 28.4 °F 22.2 °F 26.6 °F 93% 29.83 in 1.5 mi East 5.8 mph - N/A Snow Light Snow
7:34 AM 28.4 °F 22.2 °F 26.6 °F 93% 29.83 in 1.8 mi East 5.8 mph - N/A Snow Light Snow
7:55 AM 28.4 °F 23.3 °F 26.6 °F 93% 29.83 in 2.0 mi East 4.6 mph - N/A Snow Light Snow
8:14 AM 28.4 °F 23.3 °F 24.8 °F 86% 29.83 in 2.5 mi ENE 4.6 mph - N/A Snow Light Snow
8:35 AM 28.4 °F 22.2 °F 24.8 °F 86% 29.82 in 1.5 mi ENE 5.8 mph - N/A Snow Light Snow
8:55 AM 28.4 °F 23.3 °F 24.8 °F 86% 29.83 in 1.2 mi ENE 4.6 mph - N/A Snow Light Snow
9:14 AM 28.4 °F 23.3 °F 24.8 °F 86% 29.83 in 1.8 mi ENE 4.6 mph - N/A Snow Light Snow
9:35 AM 28.4 °F 23.3 °F 24.8 °F 86% 29.82 in 1.0 mi East 4.6 mph - N/A Snow Light Snow
9:55 AM 28.4 °F 24.6 °F 24.8 °F 86% 29.82 in 1.2 mi ENE 3.5 mph - N/A Snow Light Snow
10:14 AM 28.4 °F 24.6 °F 26.6 °F 93% 29.82 in 1.8 mi ENE 3.5 mph - N/A Snow Light Snow
10:35 AM 28.4 °F 24.6 °F 26.6 °F 93% 29.83 in 1.8 mi NE 3.5 mph - N/A Snow Light Snow
10:54 AM 28.4 °F 24.6 °F 26.6 °F 93% 29.84 in 1.5 mi NNE 3.5 mph - N/A Snow Light Snow
11:15 AM 28.4 °F 24.6 °F 26.6 °F 93% 29.85 in 1.8 mi North 3.5 mph - N/A Snow Light Snow
11:34 AM 28.4 °F - 26.6 °F 93% 29.86 in 1.5 mi Calm Calm - N/A Snow Light Snow
11:54 AM 28.4 °F 23.3 °F 26.6 °F 93% 29.87 in 1.8 mi North 4.6 mph - N/A Snow Light Snow
12:15 PM 30.2 °F 24.3 °F 26.6 °F 86% 29.85 in 10.0 mi North 5.8 mph - N/A   Overcast
12:34 PM 30.2 °F 25.4 °F 26.6 °F 86% 29.86 in 10.0 mi North 4.6 mph - N/A   Overcast
12:55 PM 32.0 °F 27.5 °F 28.4 °F 87% 29.86 in 10.0 mi NNW 4.6 mph - N/A   Overcast
1:34 PM 33.8 °F 27.7 °F 28.4 °F 81% 29.84 in 10.0 mi NNW 6.9 mph - N/A   Overcast
1:55 PM 33.8 °F 28.6 °F 28.4 °F 81% 29.84 in 10.0 mi NW 5.8 mph - N/A   Overcast
2:14 PM 33.8 °F 28.6 °F 28.4 °F 81% 29.84 in 10.0 mi NNW 5.8 mph - N/A   Overcast
2:35 PM 33.8 °F 28.6 °F 28.4 °F 81% 29.84 in 10.0 mi NNW 5.8 mph - N/A   Overcast
2:55 PM 33.8 °F 28.6 °F 30.2 °F 87% 29.86 in 10.0 mi NW 5.8 mph - N/A   Overcast
3:14 PM 33.8 °F 29.6 °F 28.4 °F 81% 29.87 in 10.0 mi NNW 4.6 mph - N/A   Overcast
3:35 PM 33.8 °F 29.6 °F 28.4 °F 81% 29.87 in 10.0 mi North 4.6 mph - N/A   Overcast
3:54 PM 33.8 °F 29.6 °F 28.4 °F 81% 29.87 in 10.0 mi North 4.6 mph - N/A   Overcast
4:15 PM 33.8 °F 28.6 °F 28.4 °F 81% 29.89 in 10.0 mi North 5.8 mph - N/A   Overcast
4:35 PM 33.8 °F 29.6 °F 28.4 °F 81% 29.90 in 10.0 mi NNW 4.6 mph - N/A   Overcast
4:54 PM 33.8 °F 29.6 °F 28.4 °F 81% 29.91 in 10.0 mi NW 4.6 mph - N/A   Overcast
5:15 PM 33.8 °F 30.8 °F 28.4 °F 81% 29.93 in 10.0 mi NNW 3.5 mph - N/A   Overcast
5:35 PM 33.8 °F - 28.4 °F 81% 29.93 in 10.0 mi Calm Calm - N/A   Overcast
5:54 PM 32.0 °F - 28.4 °F 87% 29.92 in 10.0 mi Calm Calm - N/A   Overcast
6:14 PM 32.0 °F - 28.4 °F 87% 29.93 in 10.0 mi Calm Calm - N/A   Overcast
6:34 PM 32.0 °F - 28.4 °F 87% 29.93 in 10.0 mi Calm Calm - N/A   Overcast
6:55 PM 32.0 °F - 28.4 °F 87% 29.94 in 10.0 mi Calm Calm - N/A   Overcast
7:14 PM 32.0 °F - 28.4 °F 87% 29.95 in 10.0 mi Calm Calm - N/A   Overcast
7:35 PM 32.0 °F - 28.4 °F 87% 29.95 in 10.0 mi Calm Calm - N/A   Overcast
7:55 PM 32.0 °F - 28.4 °F 87% 29.96 in 10.0 mi Calm Calm - N/A   Overcast
8:14 PM 32.0 °F - 28.4 °F 87% 29.96 in 10.0 mi Calm Calm - N/A   Overcast
8:35 PM 32.0 °F - 28.4 °F 87% 29.96 in 10.0 mi Calm Calm - N/A   Overcast
8:54 PM 32.0 °F - 28.4 °F 87% 29.96 in 10.0 mi Calm Calm - N/A   Overcast
9:15 PM 32.0 °F - 28.4 °F 87% 29.95 in 10.0 mi Calm Calm - N/A   Overcast
9:34 PM 32.0 °F - 28.4 °F 87% 29.95 in 10.0 mi Calm Calm - N/A   Overcast
9:55 PM 32.0 °F - 28.4 °F 87% 29.95 in 10.0 mi Calm Calm - N/A   Overcast
10:15 PM 32.0 °F - 28.4 °F 87% 29.95 in 10.0 mi Calm Calm - N/A   Overcast
10:34 PM 32.0 °F 27.5 °F 28.4 °F 87% 29.95 in 10.0 mi SE 4.6 mph - N/A   Overcast
10:55 PM 32.0 °F 27.5 °F 28.4 °F 87% 29.95 in 10.0 mi ESE 4.6 mph - N/A   Overcast
11:14 PM 32.0 °F 25.6 °F 28.4 °F 87% 29.94 in 10.0 mi ESE 6.9 mph - N/A   Overcast
11:35 PM 32.0 °F 24.8 °F 28.4 °F 87% 29.93 in 10.0 mi ESE 8.1 mph - N/A   Overcast
11:55 PM 32.0 °F 24.8 °F 28.4 °F 87% 29.92 in 10.0 mi SE 8.1 mph - N/A   Overcast